Content
SEND FEEDBACK

Daily
Averages
Monthly
Summary
United States of America

RIFLE, COLORADO


Home > North America > United States > Colorado
Elevation: 6700 feet     Latitude: 40 00N     Longitude: 108 12W

WEATHER
 
SELECT A DAY
Number of Records: 177,308;   Date Range: 2/27/97 - 10/29/14
 
SHARE

PRINT THIS DATA

[ ← Previous Day ]
WEATHER ALMANAC - JANUARY 31, 2013
[ Next Day → ]
[ °C ]   °F
Weather ElementAverageHighLow
Temperature26.4 °F36 °F (1:53 pm)14 °F (7:53 am)
Dewpoint18.4 °F23 °F (1:53 pm)10.9 °F (7:53 am)
Humidity73.2 %92 % (4:53 am)55 % (3:53 pm)
Barometer30.32 in30.39 in (8:53 am)30.22 in (1:53 am)
Wind Speed2.8 mph11.5 mph (2:53 pm)
Weather ElementAverage
Visibility10 mi
Wind DirectionENE (77.3 °)

Weather ElementTotal
Precipitation---
Heating Degree Days40 (Base 65)
Averaged from 22 records on January 31, 2013
WEATHER CONDITIONS BREAKOUT
WIND DIRECTION BREAKOUT
WEATHER BY HOUR - JANUARY 31, 2013
[ °C ]   °F
Local TimeTemperatureDewpointHumidityBarometerVisibilityWind DirectionWind SpeedGust SpeedPrecipitationEventsConditions
1:53 AM24.1 °F19.9 °F84 %30.22 in10.0 miENE (60°)3.5 mph0.00 inOvercast
2:53 AM19.9 °F17.1 °F89 %30.26 in10.0 miNNE (30°)3.5 mphOvercast
3:53 AM21.9 °F18.0 °F85 %30.25 in10.0 miCalmOvercast
4:53 AM16.0 °F14.0 °F92 %30.30 in10.0 miNE (40°)4.6 mphMostly Cloudy
5:53 AM15.1 °F12.0 °F88 %30.32 in10.0 miCalmMostly Cloudy
6:53 AM15.1 °F12.0 °F88 %30.34 in10.0 miCalmMostly Cloudy
7:53 AM14.0 °F10.9 °F88 %30.38 in10.0 miCalmOvercast
8:53 AM17.1 °F12.9 °F84 %30.39 in10.0 miCalmScattered Clouds
9:53 AM23.0 °F17.1 °F78 %30.38 in10.0 miCalmScattered Clouds
10:53 AM27.0 °F18.0 °F69 %30.38 in10.0 miCalmClear
11:53 AM30.0 °F19.9 °F66 %30.35 inNorthMostly Cloudy
12:53 PM30.9 °F21.9 °F69 %30.30 in10.0 miCalmOvercast
1:53 PM36.0 °F23.0 °F59 %30.26 in10.0 miCalmOvercast
2:53 PM36.0 °F21.9 °F57 %30.27 in10.0 miSouth (190°)11.5 mphOvercast
3:53 PM36.0 °F21.0 °F55 %30.26 in10.0 miSW (230°)4.6 mphOvercast
4:53 PM34.0 °F21.0 °F59 %30.31 in10.0 miSSW (210°)9.2 mphScattered Clouds
5:53 PM32.0 °F21.9 °F66 %30.32 in10.0 miWSW (250°)4.6 mphOvercast
6:53 PM30.9 °F21.0 °F67 %30.35 in10.0 miSW (230°)4.6 mphOvercast
7:53 PM30.0 °F19.0 °F64 %30.37 in10.0 miCalmMostly Cloudy
8:53 PM32.0 °F21.0 °F64 %30.35 in10.0 miSW (230°)6.9 mphOvercast
9:53 PM30.9 °F21.0 °F67 %30.32 in10.0 miSW (230°)5.8 mphOvercast
11:53 PM28.9 °F21.0 °F72 %30.28 in10.0 miCalmOvercast
Hourly data recorded from KEEO, located miles away from Rifle, Colorado







STORIES FROM OUR PARTNERS